{"data":{"norad_id":43065,"intl_designator":"2017-082A","name":"GCOM-C (SHIKISAI)","alt_names":[],"object_type":"PAYLOAD","status":"ACTIVE","operator":null,"country":"JPN","launch_date":"2017-12-23","launch_site_code":"TANSC","launch_vehicle":null,"mission":null,"orbit_class":"UNKNOWN","rcs_meters":null,"size_class":null,"mass_kg":null,"dimensions":null,"purposes":[],"wikipedia_slug":null,"has_3d_model":false,"image_url":null,"decayed_at":null,"tle_current":{"epoch":"2026-09-20T04:59:24.609408Z","epoch_age_seconds":76627,"freshness":"FRESH","line1":"1 43065U 17082A   26263.20792372  .00000014  00000+0  23728-4 0  9997","line2":"2 43065  98.6200 335.5604 0001130  94.0374 266.0936 14.27272057455499","mean_motion":14.27272057,"eccentricity":0.000113,"inclination_deg":98.62,"raan_deg":335.5604,"arg_perigee_deg":94.0374,"mean_anomaly_deg":266.0936,"bstar":2.3728e-5,"rev_number":45549,"period_min":100.8917671258,"perigee_km":800.05252984843,"apogee_km":801.6749840195,"semimajor_km":7179.000756934,"source":"CELESTRAK","updated_at":"2026-09-20T09:00:14.269300Z"}}}